Location: ActonStarParty
(42.4766°N, 71.4538°W)
Time: 16:50:35
(UTC-04:00)

Cosmos 407 Rocket - Pass Details

Date: 19 April 2018
Orbit: 744 x 787 km, 74.0° (Epoch: 18 September)

Event Time Altitude Azimuth Distance (km) Brightness Sun altitude
Rises 22:40:09 0° 333° (NNW) 3,198 7.9 -29.0°
Reaches altitude 10° 22:42:37 10° 326° (NW) 2,267 6.9 -29.2°
Enters shadow 22:47:06 41° 266° (W) 1,080 4.4 -29.7°
